TimeEST,TemperatureF,Dew PointF,Humidity,Sea Level PressureIn,VisibilityMPH,Wind Direction,Wind SpeedMPH,Gust SpeedMPH,PrecipitationIn,Events,Conditions,WindDirDegrees,DateUTC
12:56 AM,55.9,43.0,62,30.21,10.0,NE,8.1,-,N/A,,Overcast,40,2012-12-06 05:56:00
1:56 AM,55.9,44.1,64,30.22,10.0,NE,9.2,-,N/A,,Overcast,40,2012-12-06 06:56:00
2:56 AM,55.0,43.0,64,30.22,10.0,NNE,13.8,23.0,N/A,,Overcast,30,2012-12-06 07:56:00
3:56 AM,54.0,43.0,66,30.22,10.0,NNE,16.1,-,N/A,,Overcast,30,2012-12-06 08:56:00
4:56 AM,53.1,43.0,69,30.23,10.0,NNE,13.8,23.0,N/A,,Overcast,30,2012-12-06 09:56:00
5:56 AM,52.0,42.1,69,30.25,10.0,NNE,18.4,24.2,N/A,,Overcast,30,2012-12-06 10:56:00
6:56 AM,51.1,41.0,68,30.26,10.0,NNE,17.3,25.3,N/A,,Overcast,30,2012-12-06 11:56:00
7:56 AM,51.1,41.0,68,30.28,10.0,NE,15.0,21.9,N/A,,Overcast,40,2012-12-06 12:56:00
8:56 AM,50.0,41.0,71,30.30,10.0,NNE,17.3,21.9,N/A,,Overcast,30,2012-12-06 13:56:00
9:56 AM,50.0,39.9,68,30.31,10.0,NNE,13.8,23.0,N/A,,Overcast,30,2012-12-06 14:56:00
10:56 AM,50.0,39.9,68,30.31,10.0,NE,16.1,-,N/A,,Overcast,40,2012-12-06 15:56:00
11:56 AM,52.0,39.9,63,30.28,10.0,NE,11.5,21.9,N/A,,Overcast,50,2012-12-06 16:56:00
12:56 PM,52.0,41.0,66,30.27,10.0,NE,16.1,21.9,N/A,,Mostly Cloudy,50,2012-12-06 17:56:00
1:56 PM,53.1,42.1,66,30.26,10.0,NE,15.0,-,N/A,,Overcast,50,2012-12-06 18:56:00
2:56 PM,53.1,43.0,69,30.25,10.0,NE,15.0,-,N/A,,Overcast,50,2012-12-06 19:56:00
3:56 PM,52.0,42.1,69,30.25,10.0,ENE,15.0,-,N/A,,Clear,60,2012-12-06 20:56:00
4:56 PM,51.1,42.1,71,30.25,10.0,NE,15.0,-,N/A,,Mostly Cloudy,50,2012-12-06 21:56:00
5:56 PM,51.1,42.1,71,30.25,10.0,NE,11.5,20.7,N/A,,Partly Cloudy,40,2012-12-06 22:56:00
6:56 PM,51.1,43.0,74,30.25,10.0,NE,11.5,-,N/A,,Mostly Cloudy,40,2012-12-06 23:56:00
7:56 PM,50.0,42.1,74,30.27,10.0,NNE,11.5,-,N/A,,Mostly Cloudy,20,2012-12-07 00:56:00
8:56 PM,50.0,43.0,77,30.26,10.0,NE,12.7,-,N/A,,Overcast,40,2012-12-07 01:56:00
9:56 PM,50.0,44.1,80,30.24,10.0,NNE,9.2,-,N/A,,Overcast,30,2012-12-07 02:56:00
10:56 PM,51.1,45.0,80,30.22,10.0,NE,10.4,-,N/A,,Clear,40,2012-12-07 03:56:00
11:56 PM,52.0,46.0,80,30.21,10.0,NE,6.9,-,N/A,,Scattered Clouds,40,2012-12-07 04:56:00